This is the latest recevied weather packets stored in our database for station/object KC5DAQ-28. If no packets are shown the sender has not sent any weather packets the latest 10 day(s).
| Time | Temp. | Humidity | Pressure | Rain* | Wind** | Luminosity | Snow |
|---|---|---|---|---|---|---|---|
| 1777412042 | 31.67° C | 66% | 1005.6 hPa | 0 mm | - | 322 W/m² | - |
| 1777411982 | 31.67° C | 66% | 1005.7 hPa | 0 mm | - | 415 W/m² | - |
| 1777411923 | 31.67° C | 65% | 1005.6 hPa | 0 mm | - | 280 W/m² | - |
| 1777411862 | 31.67° C | 66% | 1005.6 hPa | 0 mm | - | 413 W/m² | - |
| 1777411805 | 31.67° C | 66% | 1005.7 hPa | 0 mm | - | 218 W/m² | - |
| 1777411743 | 31.67° C | 66% | 1005.7 hPa | 0 mm | - | 209 W/m² | - |
| 1777411683 | 31.67° C | 66% | 1005.8 hPa | 0 mm | - | 209 W/m² | - |
| 1777411623 | 32.22° C | 66% | 1005.9 hPa | 0 mm | - | 243 W/m² | - |
| 1777411562 | 32.22° C | 66% | 1005.9 hPa | 0 mm | - | 244 W/m² | - |
| 1777411503 | 32.22° C | 66% | 1006.1 hPa | 0 mm | - | 273 W/m² | - |
| 1777411443 | 32.22° C | 66% | 1005.9 hPa | 0 mm | - | 273 W/m² | - |
| 1777411382 | 32.22° C | 66% | 1005.9 hPa | 0 mm | - | 359 W/m² | - |
| 1777411325 | 32.22° C | 66% | 1005.9 hPa | 0 mm | - | 761 W/m² | - |
| 1777411262 | 32.22° C | 66% | 1006 hPa | 0 mm | - | 761 W/m² | - |
| 1777411240 | 32.22° C | 66% | 1006 hPa | 0 mm | - | 761 W/m² | - |
| 1777411144 | 32.22° C | 66% | 1005.9 hPa | 0 mm | - | 761 W/m² | - |
| 1777411082 | 31.67° C | 66% | 1005.9 hPa | 0 mm | - | 804 W/m² | - |
| 1777411023 | 31.67° C | 66% | 1006.1 hPa | 0 mm | - | 774 W/m² | - |
| 1777410962 | 31.67° C | 66% | 1006 hPa | 0 mm | - | 844 W/m² | - |
| 1777410904 | 31.67° C | 66% | 1006.1 hPa | 0 mm | - | 844 W/m² | - |
| 1777410842 | 31.67° C | 66% | 1006.1 hPa | 0 mm | - | 844 W/m² | - |
| 1777410784 | 31.67° C | 66% | 1006.2 hPa | 0 mm | - | 837 W/m² | - |
| 1777410725 | 31.67° C | 66% | 1006.1 hPa | 0 mm | - | 837 W/m² | - |
| 1777410663 | 31.67° C | 65% | 1006.1 hPa | 0 mm | - | 837 W/m² | - |
| 1777410605 | 31.67° C | 66% | 1006.1 hPa | 0 mm | - | 837 W/m² | - |
* Rain latest hour (hover to see other rain measurements)
** Current wind speed in m/s (hover to see current wind gust speed)